Marina di Ginosa, Italy

6:21 AM CEST on May 25, 2017 (GMT +0200)
Marina di Ginosa

Weather History for LIBH - November, 2013

Change the Weather History Date:

Friday, November 22, 2013

  Actual Average (LIBV) Record (LIBV)
Temperature  
Mean Temperature 56 °F -  
Max Temperature 66 °F 51 °F 62 °F (2002)
Min Temperature 47 °F 40 °F 32 °F (2001)
Degree Days  
Heating Degree Days 8    
Growing Degree Days 6 (Base 50)    
Moisture  
Dew Point 49 °F    
Average Humidity 75    
Maximum Humidity 100    
Minimum Humidity 42    
Precipitation  
Precipitation 0.02 in 0.07 in - ()
Sea Level Pressure  
Sea Level Pressure 29.58 in    
Wind  
Wind Speed 6 mph ()    
Max Wind Speed 23 mph    
Max Gust Speed -    
Visibility 7.1 miles    
Events Rain    
Averages and records for this station are not official NWS values.
T = Trace of Precipitation, MM = Missing Value Source: Averaged Metar Reports

Daily Weather History Graph

Daily Weather History Graph

Search for Another Location

Airport or City:

Trip Planner

Search our weather history database for the weather conditions in past years. The results will help you decide how hot, cold, wet, or windy it might be!

Date:

Astronomy

Nov. 22, 2013 Rise Set
Actual Time 6:46 AM CET 4:30 PM CET
Civil Twilight 6:16 AM CET 4:59 PM CET
Nautical Twilight 5:43 AM CET 5:33 PM CET
Astronomical Twilight 5:11 AM CET 6:05 PM CET
Moon 8:46 PM CET (11/22) 10:19 AM CET (11/22)
Length of Visible Light 10h 43m
Length of Day
9h 43m
Waning Gibbous, 80% of the Moon is Illuminated
Nov 22
Waning Gibbous
Nov 25
Last Quarter
Dec 3
New
Dec 9
First Quarter
Dec 17
Full

Hourly Weather History & Observations

Time (CET) Temp. Dew Point Humidity Pressure Visibility Wind Dir Wind Speed Gust Speed Precip Events Conditions
12:55 AM 50.0 °F 46.4 °F 87% 29.65 in 6.2 mi Calm Calm - N/A   Partly Cloudy
1:00 AM 50 °F 46 °F 82% 29.66 in 12 mi Calm Calm - -   Scattered Clouds
1:55 AM 48.2 °F 46.4 °F 93% 29.65 in - Calm Calm - N/A   Clear
2:55 AM 48.2 °F 46.4 °F 93% 29.62 in 6.2 mi Calm Calm - N/A   Partly Cloudy
3:55 AM 48.2 °F 46.4 °F 93% 29.62 in 6.2 mi Calm Calm - N/A   Scattered Clouds
4:55 AM 48.2 °F 46.4 °F 93% 29.59 in 6.2 mi Calm Calm - N/A   Scattered Clouds
5:55 AM 46.4 °F 46.4 °F 100% 29.59 in 6.2 mi Calm Calm - N/A   Mostly Cloudy
6:55 AM 48.2 °F 46.4 °F 93% 29.59 in 6.2 mi Calm Calm - N/A   Scattered Clouds
7:00 AM 47 °F 46 °F 95% 29.60 in 12 mi Calm Calm - -   Partly Cloudy
7:55 AM 50.0 °F 48.2 °F 94% 29.59 in 6.2 mi WNW 5.8 mph - N/A   Scattered Clouds
8:55 AM 51.8 °F 50.0 °F 94% 29.59 in 6.2 mi West 4.6 mph - N/A Rain Light Rain
9:55 AM 55.4 °F 53.6 °F 94% 29.59 in 6.2 mi West 4.6 mph - N/A   Scattered Clouds
10:55 AM 62.6 °F 51.8 °F 68% 29.59 in 6.2 mi SW 13.8 mph - N/A   Mostly Cloudy
11:55 AM 64.4 °F 50.0 °F 59% 29.59 in 6.2 mi SSW 19.6 mph - N/A   Scattered Clouds
12:55 PM 64.4 °F 46.4 °F 52% 29.56 in 6.2 mi SSW 13.8 mph - N/A   Scattered Clouds
1:00 PM 64 °F 46 °F 42% 29.58 in 12 mi SSW 13.8 mph - -   Partly Cloudy
1:55 PM 64.4 °F 44.6 °F 49% 29.56 in 6.2 mi SSW 20.7 mph - N/A   Scattered Clouds
2:55 PM 64.4 °F 44.6 °F 49% 29.56 in 6.2 mi SSW 23.0 mph - N/A   Mostly Cloudy
3:55 PM 64.4 °F 44.6 °F 49% 29.56 in 6.2 mi SSW 20.7 mph - N/A   Scattered Clouds
4:55 PM 64.4 °F 48.2 °F 56% 29.56 in 6.2 mi South 19.6 mph - N/A   Mostly Cloudy
5:55 PM 64.4 °F 48.2 °F 56% 29.56 in 6.2 mi South 15.0 mph - N/A   Mostly Cloudy
6:55 PM 66.2 °F 50.0 °F 56% 29.53 in 6.2 mi South 13.8 mph - N/A   Mostly Cloudy
7:00 PM 65 °F 50 °F 48% 29.55 in 12 mi South 13.8 mph - -   Mostly Cloudy
7:55 PM 66.2 °F 59.0 °F 78% 29.53 in 6.2 mi South 17.3 mph - N/A   Mostly Cloudy
8:55 PM 64.4 °F 59.0 °F 83% 29.53 in 6.2 mi SSW 16.1 mph - N/A   Mostly Cloudy
9:55 PM 66.2 °F 59.0 °F 78% 29.53 in 6.2 mi SSW 18.4 mph - N/A   Mostly Cloudy
10:55 PM 59.0 °F 53.6 °F 82% 29.50 in 6.2 mi SSW 10.4 mph - N/A   Mostly Cloudy
11:55 PM 59.0 °F 53.6 °F 82% 29.50 in 6.2 mi SSW 9.2 mph - N/A   Mostly Cloudy